TimeMDT,TemperatureF,Dew PointF,Humidity,Sea Level PressureIn,VisibilityMPH,Wind Direction,Wind SpeedMPH,Gust SpeedMPH,PrecipitationIn,Events,Conditions,WindDirDegrees,DateUTC
12:53 AM,60.1,55.0,83,29.71,10.0,South,12.7,-,N/A,,Clear,180,2013-09-22 06:53:00
1:53 AM,59.0,54.0,83,29.70,10.0,South,11.5,-,N/A,,Clear,170,2013-09-22 07:53:00
2:53 AM,57.0,54.0,89,29.68,10.0,South,12.7,-,N/A,,Clear,170,2013-09-22 08:53:00
3:53 AM,57.0,54.0,89,29.66,10.0,South,12.7,-,N/A,,Clear,180,2013-09-22 09:53:00
4:53 AM,57.0,54.0,89,29.66,10.0,South,13.8,-,N/A,,Clear,180,2013-09-22 10:53:00
5:53 AM,55.9,54.0,93,29.66,10.0,South,15.0,-,N/A,,Clear,170,2013-09-22 11:53:00
6:53 AM,55.0,53.1,93,29.69,10.0,South,12.7,-,N/A,,Clear,170,2013-09-22 12:53:00
7:53 AM,57.0,53.1,87,29.70,10.0,South,17.3,-,N/A,,Clear,170,2013-09-22 13:53:00
8:53 AM,61.0,54.0,78,29.69,10.0,South,18.4,-,N/A,,Clear,170,2013-09-22 14:53:00
9:53 AM,66.9,55.0,66,29.68,10.0,South,20.7,-,N/A,,Clear,180,2013-09-22 15:53:00
10:53 AM,72.0,55.9,57,29.66,10.0,SSE,20.7,25.3,N/A,,Clear,160,2013-09-22 16:53:00
11:53 AM,79.0,57.0,47,29.63,10.0,SSE,19.6,26.5,N/A,,Clear,160,2013-09-22 17:53:00
12:53 PM,82.9,55.9,39,29.60,10.0,South,20.7,27.6,N/A,,Clear,170,2013-09-22 18:53:00
1:53 PM,86.0,55.0,35,29.57,10.0,South,21.9,32.2,N/A,,Clear,170,2013-09-22 19:53:00
2:53 PM,88.0,50.0,27,29.54,10.0,South,23.0,31.1,N/A,,Clear,180,2013-09-22 20:53:00
3:53 PM,87.1,46.0,24,29.52,10.0,South,25.3,34.5,N/A,,Clear,170,2013-09-22 21:53:00
4:53 PM,84.9,46.9,27,29.51,10.0,SSE,28.8,38.0,N/A,,Clear,160,2013-09-22 22:53:00
5:53 PM,80.1,46.0,30,29.52,10.0,SSE,26.5,34.5,N/A,,Clear,160,2013-09-22 23:53:00
6:53 PM,75.9,48.0,37,29.54,10.0,SSE,24.2,29.9,N/A,,Clear,160,2013-09-23 00:53:00
7:53 PM,72.0,45.0,38,29.56,10.0,SSE,20.7,28.8,N/A,,Clear,160,2013-09-23 01:53:00
8:53 PM,70.0,44.1,39,29.56,10.0,SSE,21.9,29.9,N/A,,Clear,160,2013-09-23 02:53:00
9:53 PM,68.0,48.9,50,29.55,10.0,South,23.0,28.8,N/A,,Clear,170,2013-09-23 03:53:00
10:53 PM,64.9,48.0,54,29.54,10.0,SSE,24.2,32.2,N/A,,Clear,160,2013-09-23 04:53:00
11:53 PM,64.0,46.9,54,29.52,10.0,SSE,21.9,29.9,N/A,,Scattered Clouds,160,2013-09-23 05:53:00